Location: Unspecified
(0.0000°N, 0.0000°E)
Time: 21:30:57
(UTC+00:00)

Hubble Space Telescope - Pass Details

Date: 23 April 2018
Orbit: 537 x 541 km, 28.5° (Epoch: 19 October)

Event Time Altitude Azimuth Distance (km) Brightness Sun altitude
Exits shadow 04:01:14 13° 9° (N) 1,594 3.4 -28.5°
Maximum altitude 04:02:22 14° 28° (NNE) 1,526 3.5 -28.3°
Drops below altitude 10° 04:04:38 10° 61° (ENE) 1,782 4.3 -27.7°
Sets 04:07:48 0° 86° (E) 2,673 5.6 -26.9°
